Location: Bismarck
(46.7731°N, 100.8200°W)
Time: 12:27:57
(UTC-05:00)

Landsat 7 - Visible Passes

Search period start: 20 April 2014 00:00
Search period end: 30 April 2014 00:00
Orbit: 702 x 703 km, 98.2° (Epoch: 20 April)

Date Brightness Start Highest point End Pass type
(mag) Time Alt. Az. Time Alt. Az. Time Alt. Az.
20 Apr 4.9 00:00:00 36° W 23:59:45 37° W 00:03:57 10° NNW visible
20 Apr 6.0 21:26:49 10° ENE 21:27:37 10° NE 21:28:25 10° NE visible
20 Apr 3.8 23:03:33 54° SE 23:04:28 69° ENE 23:09:13 10° N visible
21 Apr 6.1 00:42:26 15° W 00:42:43 15° W 00:45:28 10° NW visible
21 Apr 5.2 22:07:51 18° E 22:09:50 23° ENE 22:13:33 10° NNE visible
21 Apr 4.4 23:46:44 45° WSW 23:47:17 48° W 23:51:54 10° NNW visible
22 Apr 4.1 22:51:03 41° ESE 22:52:19 53° ENE 22:56:57 10° N visible
23 Apr 5.8 00:29:55 19° W 00:30:22 20° W 00:33:49 10° NW visible
23 Apr 5.5 21:55:21 13° E 21:57:46 19° ENE 22:01:01 10° NNE visible
23 Apr 4.0 23:34:14 53° SSW 23:35:03 62° WSW 23:39:47 10° NNW visible
24 Apr 4.4 22:38:32 31° ESE 22:40:10 41° ENE 22:44:38 10° N visible
25 Apr 5.4 00:17:25 24° WSW 00:18:03 25° W 00:21:59 10° NW visible
25 Apr 5.8 21:43:07 10° E 21:45:43 15° ENE 21:48:20 10° NNE visible
25 Apr 3.8 23:21:43 53° S 23:22:50 81° WSW 23:27:37 10° NNW visible
26 Apr 4.8 22:26:01 23° ESE 22:28:03 32° ENE 22:32:16 10° N visible
27 Apr 5.0 00:04:54 30° WSW 00:05:45 32° W 00:10:02 10° NNW visible
27 Apr 5.9 21:32:01 10° ENE 21:33:42 12° NE 21:35:22 10° NE visible
27 Apr 3.7 23:09:12 46° SSE 23:10:38 78° ENE 23:15:24 10° NNW visible
28 Apr 6.2 00:48:05 13° W 00:48:57 13° W 00:51:13 10° WNW visible
28 Apr 5.1 22:13:31 17° ESE 22:15:56 26° ENE 22:19:51 10° N visible
28 Apr 4.7 23:52:23 36° SW 23:53:29 42° W 23:58:00 10° NNW visible
29 Apr 3.9 22:56:42 36° SE 22:58:27 61° ENE 23:03:09 10° N visible
